[[{"header":{"parameterUnit":"m.s-1","parameterCategory":1,"la1":30.2991,"la2":30.254,"lo1":-89.0895,"lo2":-89.0444,"dy":0.0017,"dx":0.0017,"nx":28,"ny":28,"refTime":"2023-11-21T09:00:00:Z","depth":0,"parameterNumber":2,"parameterNumberName":"U-component_of_WINDS"},"data":[0,0,0,0,0,0,0,0,0,0,0,0,0,0,0,0,0,0,0,0,0,0,0,0,0,0,0,0,0,0,0,0,0,0,0,0,0,0,0,0,0,0,0,0,0,0,0,0,0,0,0,0,0,0,0,0,0,0,0.1376,0.1375,0,0.1284,0.1283,0.1282,0.123,0.123,0.1229,0.1229,0.113,0.1127,0.1125,0,0,0,0,0,0,0,0,0,0,0,0,0,0.15,0.1498,0.1376,0.1375,0.1373,0.1284,0.1283,0.1282,0.123,0.123,0.1229,0.1229,0.113,0.1127,0.1124,0,0,0,0,0,0,0,0,0,0,0,0,0,0.1431,0.1498,0.1376,0.1337,0.1333,0.1284,0.1283,0.1281,0.123,0.123,0.1229,0.1229,0.1131,0.1128,0.1124,0.1106,0,0,0.1113,0.1111,0,0,0,0,0,0,0,0,0.1435,0.1427,0.1344,0.134,0.1335,0.1268,0.129,0.1222,0.123,0.1269,0.1229,0.1229,0.1175,0.1168,0.1151,0.1101,0.1097,0.1112,0.111,0.1108,0.1107,0,0,0,0,0,0,0,0.144,0.143,0.1339,0.1343,0.1337,0.1322,0.1312,0.1277,0.1224,0.1265,0.1261,0.1251,0.1173,0.1155,0.1148,0.1095,0.1112,0.1109,0.1107,0.1105,0.1024,0.1024,0,0,0,0,0,0,0.1452,0.1435,0.1342,0.1336,0.1386,0.132,0.1309,0.129,0.1225,0.1215,0.1252,0.1249,0.1162,0.1153,0.1145,0.1118,0.1108,0.1105,0.1103,0.1024,0.1024,0.1024,0,0,0,0,0,0,0.1455,0.1444,0.1346,0.1384,0.1371,0.1318,0.1297,0.1288,0.127,0.1215,0.1204,0.1244,0.1161,0.115,0.1116,0.1114,0.1103,0.11,0.1024,0.1024,0.1024,0.1066,0,0,0,0,0,0,0.1459,0.1445,0.1439,0.1385,0.1369,0.1321,0.1297,0.1286,0.1264,0.126,0.1204,0.1194,0.116,0.1122,0.1112,0.1109,0.1097,0.1024,0.1024,0.1024,0.1065,0.1068,0.1071,0,0,0,0,0,0.1463,0.1454,0.1439,0.1428,0.1361,0.1321,0.1311,0.1273,0.1265,0.1257,0.1221,0.1196,0.1116,0.1119,0.1108,0.1103,0.1024,0.1024,0.1024,0.1064,0.1067,0.107,0,0,0,0,0,0,0.1508,0.1446,0.1429,0.1402,0.1367,0.1312,0.1301,0.1279,0.1244,0.1241,0.1194,0.1182,0.1152,0.1124,0.1128,0.1081,0.1067,0.1065,0.1101,0.1104,0.1107,0.1114,0.1094,0,0,0,0,0,0.1515,0.1489,0.1436,0.1417,0.1401,0.1354,0.1335,0.1309,0.127,0.1255,0.1216,0.1178,0.1144,0.1122,0.1088,0.106,0.1047,0.1052,0.1055,0.1057,0.1056,0.1038,0.1039,0.1025,0.1025,0.1025,0,0,0.1528,0.1491,0.1478,0.1425,0.1395,0.1368,0.1342,0.1314,0.1293,0.125,0.1216,0.1186,0.114,0.1109,0.1093,0.1085,0.1057,0.1057,0.106,0.1057,0.1038,0.104,0.1041,0.1025,0.1025,0.1025,0,0,0.1539,0.1509,0.149,0.1461,0.1416,0.1386,0.1381,0.1329,0.1308,0.1274,0.124,0.1213,0.1156,0.1124,0.1101,0.11,0.1075,0.1089,0.1104,0.1087,0.1089,0.1089,0.1088,0.1088,0.1088,0.1088,0.1088,0,0.1561,0.1521,0.1483,0.1458,0.1435,0.1396,0.1375,0.1348,0.1294,0.1278,0.1269,0.1197,0.1163,0.1123,0.1123,0.1106,0.1097,0.1096,0.1092,0.1092,0.1092,0.109,0.109,0.109,0.109,0.109,0.109,0,0.155,0.1522,0.1512,0.1463,0.1439,0.1416,0.1372,0.1352,0.1328,0.1298,0.1262,0.122,0.1176,0.1165,0.1141,0.1122,0.1118,0.1101,0.1086,0.1096,0.1094,0.1093,0.1093,0.1093,0.1092,0.1092,0,0,0.1586,0.1517,0.1513,0.149,0.1438,0.1415,0.1389,0.1349,0.1332,0.1295,0.1272,0.1224,0.1209,0.1182,0.1153,0.1139,0.1139,0.1123,0.1121,0.1127,0.1115,0.1128,0.1128,0.1123,0.1123,0.1122,0.1118,0,0.1589,0.1544,0.1509,0.1476,0.145,0.1412,0.139,0.1354,0.1325,0.1296,0.1263,0.123,0.1212,0.1195,0.118,0.1143,0.1136,0.1143,0.1098,0.1097,0.1111,0.1126,0.114,0.1138,0.1117,0.1117,0.1117,0,0.1587,0.1554,0.1519,0.147,0.1457,0.1438,0.1397,0.1371,0.1329,0.1309,0.1279,0.125,0.1219,0.1207,0.1163,0.1168,0.1148,0.1127,0.1126,0.112,0.1108,0.112,0.1137,0.1136,0.1115,0.1115,0.1115,0,0.1616,0.1563,0.1535,0.1516,0.1458,0.1445,0.142,0.1378,0.1356,0.1319,0.1304,0.1264,0.1242,0.121,0.117,0.1165,0.113,0.1115,0.111,0.1111,0.1104,0.1105,0.1118,0.1092,0.1092,0.1092,0.1092,0,0.1623,0.1603,0.1547,0.153,0.1506,0.1465,0.1442,0.1413,0.1376,0.1351,0.1315,0.1292,0.1241,0.1211,0.1179,0.1147,0.1137,0.1118,0.111,0.1121,0.1124,0.1107,0.1106,0.1092,0.1092,0.1092,0.1092,0,0.1651,0.1614,0.1581,0.1529,0.1515,0.15,0.1454,0.1435,0.1404,0.1372,0.1363,0.1313,0.1276,0.1233,0.1181,0.1159,0.1129,0.1117,0.1144,0.1139,0.1137,0.1138,0.1139,0.1136,0.1114,0.1114,0.1114,0,0.1658,0.1642,0.1589,0.1571,0.1547,0.1518,0.1495,0.1454,0.1431,0.1382,0.1369,0.1329,0.1296,0.1237,0.1195,0.1155,0.1141,0.1144,0.1135,0.1147,0.114,0.1142,0.1139,0.1147,0.1147,0.1148,0.1148,0,0.1673,0.1656,0.1626,0.1589,0.1564,0.1532,0.1499,0.1486,0.1437,0.1413,0.1376,0.135,0.1298,0.1258,0.1213,0.1184,0.1157,0.1152,0.1148,0.1159,0.1176,0.1166,0.1151,0.1152,0.1151,0.1151,0.1151,0.1151,0.169,0.1675,0.1635,0.1602,0.1574,0.1543,0.1523,0.149,0.1459,0.1415,0.1391,0.1354,0.1311,0.1248,0.122,0.1189,0.118,0.1175,0.1174,0.1173,0.1176,0.1181,0.118,0.118,0.118,0.118,0.118,0,0.1704,0.1677,0.1647,0.1603,0.1577,0.1557,0.1519,0.1498,0.1466,0.143,0.1398,0.1354,0.1316,0.1271,0.1229,0.1213,0.1199,0.1203,0.1203,0.1197,0.1187,0.1194,0.1215,0.1215,0.1215,0.1215,0.1215,0.1215,0.1708,0.168,0.1657,0.1614,0.1586,0.1551,0.1531,0.1502,0.1473,0.1427,0.1396,0.1368,0.1327,0.1282,0.1245,0.1232,0.1218,0.1225,0.1209,0.1201,0.1198,0.1195,0.1201,0.1223,0.1223,0.1221,0.1221,0.1221]},{"header":{"parameterUnit":"m.s-1","parameterCategory":1,"la1":30.2991,"la2":30.254,"lo1":-89.0895,"lo2":-89.0444,"dy":0.0017,"dx":0.0017,"nx":28,"ny":28,"refTime":"2023-11-21T09:00:00:Z","depth":0,"parameterNumber":3,"parameterNumberName":"V-component_of_WINDS"},"data":[0,0,0,0,0,0,0,0,0,0,0,0,0,0,0,0,0,0,0,0,0,0,0,0,0,0,0,0,0,0,0,0,0,0,0,0,0,0,0,0,0,0,0,0,0,0,0,0,0,0,0,0,0,0,0,0,0,0,6.4146,6.4149,0,6.4366,6.4369,6.4371,6.4428,6.4426,6.4425,6.4424,6.4649,6.4656,6.4663,0,0,0,0,0,0,0,0,0,0,0,0,0,6.3776,6.3783,6.4146,6.4149,6.4152,6.4366,6.4369,6.4372,6.4428,6.4426,6.4425,6.4423,6.4647,6.4655,6.4664,0,0,0,0,0,0,0,0,0,0,0,0,0,6.3961,6.3785,6.4146,6.4206,6.4213,6.4365,6.4369,6.4373,6.4428,6.4426,6.4424,6.4422,6.4644,6.4655,6.4665,6.4774,0,0,6.4699,6.4703,0,0,0,0,0,0,0,0,6.395,6.3974,6.4194,6.4202,6.421,6.4368,6.4321,6.4507,6.4429,6.4347,6.4424,6.4421,6.4557,6.4575,6.4621,6.4784,6.4794,6.47,6.4706,6.4711,6.4714,0,0,0,0,0,0,0,6.3937,6.3965,6.4233,6.4197,6.4207,6.4222,6.4246,6.4357,6.4461,6.4354,6.4358,6.4384,6.4561,6.461,6.4627,6.4797,6.4699,6.4709,6.4716,6.472,6.5066,6.5068,0,0,0,0,0,0,6.3914,6.3954,6.4226,6.424,6.4073,6.423,6.4257,6.4319,6.446,6.4479,6.4385,6.4385,6.4593,6.4614,6.4635,6.4774,6.4711,6.4721,6.4727,6.5063,6.5066,6.5069,0,0,0,0,0,0,6.3906,6.3938,6.4218,6.4099,6.4135,6.4239,6.4308,6.4325,6.4374,6.4483,6.4502,6.4416,6.4592,6.4619,6.474,6.4783,6.4726,6.4736,6.506,6.5064,6.5068,6.5052,0,0,0,0,0,0,6.3895,6.3935,6.3976,6.4099,6.4141,6.4318,6.4311,6.433,6.4392,6.4395,6.4517,6.4536,6.4592,6.4723,6.4751,6.4797,6.4744,6.5057,6.5062,6.5066,6.5049,6.5055,6.5059,0,0,0,0,0,6.3882,6.3962,6.3978,6.4011,6.4195,6.432,6.4345,6.4408,6.4395,6.4439,6.451,6.4532,6.4773,6.4735,6.4766,6.4816,6.5054,6.506,6.5066,6.5046,6.5053,6.5059,0,0,0,0,0,0,6.384,6.3979,6.3998,6.4121,6.4208,6.433,6.4386,6.4413,6.4506,6.4504,6.4579,6.4606,6.4723,6.4781,6.4736,6.4931,6.4914,6.4926,6.4888,6.4896,6.4901,6.4885,6.4754,0,0,0,0,0,6.3846,6.3935,6.4052,6.4148,6.4192,6.4281,6.4338,6.4379,6.4473,6.4511,6.459,6.4681,6.4778,6.484,6.4935,6.5057,6.5087,6.5108,6.5113,6.5117,6.5127,6.52,6.5212,6.5089,6.5088,6.5088,0,0,6.3857,6.3944,6.3996,6.4142,6.4215,6.4308,6.4312,6.4408,6.4478,6.4525,6.4645,6.4707,6.4813,6.4936,6.4994,6.4989,6.5168,6.5124,6.5126,6.5135,6.5207,6.5219,6.5229,6.5093,6.5092,6.5091,0,0,6.3926,6.3999,6.409,6.4164,6.4275,6.4334,6.4356,6.4474,6.4518,6.4639,6.4677,6.4761,6.4925,6.5001,6.506,6.5161,6.5186,6.519,6.5218,6.5288,6.5298,6.5307,6.5346,6.5359,6.52,6.52,6.52,0,6.3926,6.4067,6.4133,6.4229,6.4294,6.4342,6.4435,6.4503,6.4639,6.4683,6.4675,6.4884,6.4959,6.5102,6.5127,6.5173,6.5202,6.5177,6.5291,6.5301,6.531,6.5348,6.5362,6.5199,6.5199,6.5199,6.5199,0,6.4063,6.416,6.422,6.4352,6.4423,6.4516,6.4598,6.4663,6.4699,6.4759,6.4884,6.4976,6.5092,6.5128,6.5163,6.5278,6.5271,6.5276,6.5261,6.5321,6.5358,6.5373,6.5199,6.5199,6.5199,6.5199,0,0,6.4111,6.428,6.4301,6.4363,6.4491,6.4567,6.4664,6.4779,6.4834,6.4926,6.5011,6.515,6.5157,6.5225,6.5269,6.5331,6.5409,6.5329,6.5333,6.5343,6.5544,6.5541,6.5556,6.5426,6.5428,6.5431,6.5536,0,6.4197,6.4373,6.4437,6.4582,6.4674,6.4722,6.4808,6.4896,6.4956,6.5043,6.511,6.5209,6.5208,6.525,6.5313,6.5386,6.545,6.5379,6.5507,6.5511,6.5481,6.5575,6.5572,6.5667,6.5551,6.5553,6.5555,0,6.4321,6.4418,6.4572,6.4691,6.4732,6.4808,6.4919,6.5002,6.5103,6.5143,6.522,6.5262,6.5367,6.5345,6.5493,6.5443,6.5499,6.5544,6.5549,6.5565,6.5538,6.5596,6.5698,6.5713,6.5578,6.5576,6.5574,0,6.4344,6.4512,6.4627,6.4678,6.4819,6.4872,6.4933,6.5033,6.5099,6.5196,6.524,6.5348,6.5408,6.5491,6.5562,6.5538,6.5705,6.5687,6.5742,6.5741,6.5776,6.5773,6.5891,6.5809,6.5809,6.5808,6.5808,0,6.4435,6.4528,6.464,6.4711,6.4818,6.4891,6.4995,6.5059,6.5148,6.5234,6.5281,6.536,6.5447,6.5539,6.5594,6.571,6.5736,6.5773,6.5787,6.577,6.5766,6.5809,6.5805,6.5812,6.5811,6.5811,6.581,0,6.4479,6.4557,6.4686,6.481,6.4844,6.4917,6.5024,6.5096,6.5158,6.5266,6.5296,6.5395,6.5505,6.5583,6.5724,6.5762,6.5888,6.59,6.5854,6.5861,6.5913,6.5908,6.6064,6.609,6.5988,6.5989,6.599,0,6.4533,6.4606,6.4739,6.48,6.4862,6.4959,6.5027,6.5102,6.5171,6.5295,6.5352,6.5466,6.5561,6.5735,6.582,6.5929,6.5946,6.5994,6.5963,6.5945,6.595,6.5946,6.5955,6.5998,6.5999,6.6,6.6,0,6.4621,6.4657,6.4753,6.4864,6.4944,6.5035,6.5126,6.5173,6.5265,6.534,6.5454,6.5528,6.5674,6.5787,6.5905,6.5969,6.6002,6.6009,6.6028,6.6013,6.5984,6.6003,6.5869,6.6005,6.6005,6.6004,6.6004,6.6004,6.4674,6.4742,6.4848,6.4954,6.5031,6.5116,6.5191,6.5264,6.536,6.5485,6.5523,6.5642,6.5746,6.5908,6.5974,6.6069,6.6067,6.6093,6.6101,6.6107,6.6108,6.5967,6.6091,6.6091,6.609,6.609,6.609,0,6.4767,6.4837,6.4935,6.5062,6.5146,6.5169,6.5272,6.5341,6.5445,6.5539,6.5632,6.5765,6.5875,6.597,6.6085,6.6144,6.6161,6.6172,6.6169,6.6184,6.6102,6.6075,6.6156,6.6156,6.6156,6.6156,6.6156,6.6155,6.4825,6.4944,6.4993,6.5151,6.5221,6.5339,6.5396,6.5475,6.5551,6.5697,6.5789,6.5851,6.5946,6.6069,6.6173,6.6198,6.6239,6.6247,6.6275,6.6197,6.6189,6.6182,6.6158,6.6254,6.6254,6.635,6.6351,6.6352]}]]